GFSFLT2_con_lsi_000.txt.gz
Lid_Strength_Index
4 4 3 3 3 4 4 5 4 5 5 4 4 3 3 3 3 2 2 2 2 2 2 3 3 2 4
7 5 4 4 5 5 6 6 7 5 6 5 6 5 4 4 4 3 3 3 3 3 3 1 2 2 5
8 7 6 6 6 6 7 7 6 8 9 8 7 6 5 5 5 4 4 4 4 4 3 2 2 6 7
9 9 9 9 9 9 9 9 9 9 9 8 7 6 6 6 6 5 5 5 6 8 8 6 7 7 7
11 10 10 10 10 10 10 10 10 9 10 10 10 10 10 8 10 9 9 9 9 9 8 8 8 7 7
10 10 10 10 10 10 11 11 11 11 11 11 11 11 11 11 12 11 11 10 10 9 9 9 8 8 8
10 11 11 11 11 11 11 12 12 12 13 12 12 12 12 12 12 12 12 12 11 10 10 9 10 9 9
11 11 11 11 11 12 12 13 13 13 14 13 13 13 13 13 13 13 13 13 12 11 10 10 10 10 9
11 11 11 12 12 12 12 13 13 13 14 14 14 14 14 13 14 14 13 13 13 12 12 11 10 10 10
12 12 12 12 12 13 13 13 13 13 14 15 15 14 14 14 14 14 14 14 14 13 13 12 12 11 10
12 12 12 13 13 14 14 14 14 14 14 15 15 15 14 14 15 14 14 15 14 14 13 13 13 12 12
13 13 13 13 14 14 15 14 15 15 14 15 15 15 15 15 15 15 15 15 15 14 13 13 13 12 12
13 14 15 15 15 15 15 15 15 15 15 16 16 16 16 16 16 15 15 15 16 15 15 15 14 13 13
13 14 15 15 15 15 15 15 15 15 15 16 16 16 16 17 16 16 16 16 16 15 16 16 17 15 13
14 14 15 16 16 16 16 16 15 15 15 16 16 16 17 16 17 16 16 16 17 16 16 16 18 19 16
14 15 16 17 18 17 16 16 16 15 16 16 16 16 17 17 17 17 16 17 17 18 16 14 15 15 17

GFSFLT2_con_lsi_006.txt.gz
Lid_Strength_Index
-1 -1 -1 -1 0 1 1 2 2 2 3 3 3 3 2 2 2 2 2 3 3 3 3 3 4 4 9
3 0 0 0 1 2 2 3 3 4 5 4 4 3 3 3 3 3 4 4 5 4 4 4 5 5 9
6 4 2 2 2 3 3 4 6 9 9 8 5 5 4 5 5 5 5 6 7 6 6 6 7 9 9
6 6 7 7 8 8 9 8 10 11 10 8 6 6 6 7 6 6 7 8 9 11 11 9 10 10 10
8 9 10 10 10 10 11 10 11 10 10 11 12 12 12 11 13 12 12 12 12 12 12 12 11 12 12
10 9 10 10 11 11 11 11 12 12 13 13 13 13 14 14 14 14 14 13 13 12 12 12 12 12 12
11 11 11 11 11 11 12 11 12 13 13 13 14 14 15 14 15 15 14 14 14 13 13 13 13 13 13
11 11 11 11 11 12 13 13 12 13 14 14 14 14 15 15 15 15 15 15 15 14 14 13 14 13 13
11 11 12 12 11 12 13 13 13 14 14 14 14 15 15 15 15 15 15 15 16 15 15 14 14 13 13
11 12 11 12 12 12 14 14 14 14 14 15 15 16 15 16 16 16 16 16 16 16 16 15 15 14 14
12 12 13 13 13 13 14 15 15 14 15 15 16 16 16 16 16 16 17 17 17 16 16 15 15 15 15
13 14 15 14 14 14 15 15 15 15 15 16 16 16 16 16 16 17 17 17 17 17 15 15 16 15 15
14 14 15 14 15 16 16 15 16 16 16 16 16 17 16 17 17 17 17 17 17 17 17 17 17 16 15
13 13 14 14 16 15 15 15 15 16 16 16 17 17 17 17 17 17 17 18 17 17 19 19 19 18 15
13 14 16 16 17 17 17 17 16 16 16 16 16 17 17 17 18 18 18 18 18 18 18 19 20 20 19
13 14 15 14 16 16 16 17 17 16 16 16 17 17 18 18 18 18 17 18 18 19 18 17 18 18 20

GFSFLT2_con_lsi_009.txt.gz
Lid_Strength_Index
-1 -1 -2 -2 -2 -1 -0 0 1 1 1 1 2 1 1 1 1 2 3 3 3 3 3 4 4 5 10
1 -1 -1 -1 -1 -0 0 1 1 3 3 3 2 2 2 2 2 3 4 4 4 4 5 5 6 7 10
4 3 1 -0 0 0 1 2 4 8 7 7 4 3 3 3 4 4 5 6 7 6 6 6 8 11 11
5 5 5 5 5 6 7 7 10 10 10 8 5 4 5 5 5 6 7 8 10 12 12 10 12 12 12
7 7 7 8 9 9 10 10 11 11 10 11 11 12 12 11 13 12 13 13 13 13 13 13 13 13 13
9 8 9 9 10 11 11 11 12 12 13 13 13 14 14 14 15 14 14 14 14 13 13 14 14 14 14
10 9 10 10 10 11 11 11 12 12 13 13 14 14 15 15 15 15 15 15 15 14 14 14 14 14 14
10 10 10 10 11 12 12 11 12 13 13 14 14 15 15 15 15 15 15 15 15 15 15 15 15 14 14
10 11 11 11 11 12 12 12 12 13 14 14 15 15 15 15 15 15 15 16 16 15 16 15 15 14 14
10 11 11 12 11 12 13 13 13 13 14 15 15 16 16 16 16 16 16 17 17 17 17 16 16 15 15
10 11 11 12 12 12 14 14 14 14 14 15 15 16 16 16 16 16 17 17 17 17 16 16 16 16 16
11 12 13 13 14 14 14 15 14 14 15 15 16 16 16 17 17 17 17 17 17 17 16 17 17 16 16
13 14 13 14 14 15 15 15 15 15 15 16 16 17 17 17 17 17 17 18 18 18 18 18 17 16 16
12 12 14 13 16 15 15 15 15 15 16 16 17 17 17 17 17 17 17 18 18 18 19 19 20 18 17
12 14 17 17 18 18 17 16 16 16 16 16 17 17 17 17 18 18 18 18 19 18 18 19 21 21 19
13 13 15 15 15 15 14 15 16 16 16 17 17 17 17 18 18 18 17 18 18 19 18 17 18 18 20

GFSFLT2_con_lsi_015.txt.gz
Lid_Strength_Index
-1 -1 -1 -2 -2 -2 -2 -2 -1 -2 -1 -1 -0 -0 -0 -0 0 1 1 1 2 3 3 4 5 6 7
-1 0 0 -1 -1 -2 -1 -1 -1 -1 -1 -0 -0 -0 -0 0 1 2 2 2 3 4 5 6 7 8 8
-0 1 1 -0 -1 -1 -0 0 1 1 1 1 2 -0 0 1 2 3 3 4 4 5 6 7 9 10 9
2 1 0 -0 -1 1 1 2 3 4 4 4 3 1 1 2 3 4 5 7 9 10 9 10 10 10 10
2 2 2 2 2 3 2 4 5 6 5 5 4 5 5 6 6 7 9 10 10 10 11 11 11 11 10
3 2 3 3 4 4 4 6 7 7 6 7 7 7 8 9 10 10 10 10 11 11 11 11 11 11 11
3 3 3 3 3 4 5 6 7 8 7 8 8 10 10 11 11 11 11 12 11 12 12 12 12 12 12
3 3 3 3 4 5 6 7 8 8 8 9 10 11 11 11 11 11 12 12 12 12 12 12 12 12 12
3 4 3 4 5 6 6 7 9 9 9 10 11 11 12 12 12 12 13 13 13 13 13 13 13 12 12
4 4 4 4 5 5 7 8 9 9 10 10 11 12 12 12 12 12 13 13 13 13 13 13 13 12 12
4 4 5 5 6 6 8 8 9 10 10 11 11 12 13 13 13 13 14 13 14 14 14 13 13 13 13
5 5 6 8 6 7 8 9 10 10 11 11 12 13 13 13 13 13 13 14 13 14 15 14 14 13 13
7 8 9 9 8 9 9 9 10 10 11 11 12 13 14 14 14 13 13 14 14 14 14 14 14 14 14
8 8 8 8 9 9 9 10 10 11 12 12 13 13 14 14 15 14 14 15 15 15 14 14 15 15 14
9 9 13 12 13 12 12 12 12 11 12 12 13 14 14 14 15 14 14 14 15 15 15 13 16 15 15
10 11 11 11 12 12 11 11 12 12 12 12 13 14 14 14 14 14 14 14 14 15 15 15 15 15 15

GFSFLT2_con_lsi_021.txt.gz
Lid_Strength_Index
0 0 -0 -1 -1 -1 -1 -2 -2 -2 -2 -1 -2 -1 -1 -1 -1 -1 0 1 2 3 3 4 5 4 4
-1 1 1 0 -0 -1 -1 -1 -0 -1 -1 -1 -2 -2 -1 -1 -0 0 1 1 2 4 5 6 7 5 5
-1 0 1 1 1 0 0 1 1 -1 -1 -1 -1 -1 -1 -1 0 1 1 2 3 5 6 7 6 6 6
-0 -1 -1 -1 -1 -1 -1 -1 -1 -1 -1 -1 1 -0 -1 -0 1 1 2 3 5 6 7 7 6 7 7
-0 -1 -1 -1 -0 -1 -1 -1 -1 -1 -1 -0 -0 1 -0 2 2 2 4 6 6 6 7 7 7 7 7
-0 -0 -1 -0 -1 -1 -1 -1 -1 -1 -1 0 1 0 -0 1 2 3 5 5 6 7 7 7 7 7 7
-0 -0 -0 -0 -0 -1 -1 -1 -1 -0 -0 1 1 1 1 2 3 4 6 7 7 8 8 8 8 8 8
0 -0 -0 -0 -1 -1 -1 -1 -1 -1 -0 1 2 1 2 2 4 6 6 7 7 7 8 8 9 8 8
0 -0 -0 -0 -0 -0 -0 -1 -1 -1 0 2 2 2 2 3 5 6 7 7 8 8 8 9 9 9 8
0 -0 -0 -0 -0 -0 -1 -1 -1 -1 1 2 3 3 3 5 6 7 8 8 8 9 9 9 9 8 9
0 -0 -0 -0 -0 -0 -1 -1 -1 0 1 3 4 4 4 6 7 7 8 8 9 9 9 9 9 9 9
2 1 0 0 -0 -0 -0 -0 -0 0 2 3 4 5 6 7 7 8 8 8 8 9 11 11 9 9 9
4 3 2 2 1 1 0 0 0 1 2 3 5 5 6 7 8 8 8 9 9 9 10 11 11 10 10
5 4 3 3 2 1 1 1 1 2 3 4 5 6 7 8 8 8 9 10 10 10 10 11 13 13 11
6 5 5 4 5 5 4 3 2 2 3 4 5 6 7 8 8 9 9 10 11 10 9 10 11 12 13
7 6 6 6 7 6 6 5 5 4 4 5 6 6 7 8 8 9 9 9 9 11 11 10 10 9 12

GFSFLT2_con_lsi_024.txt.gz
Lid_Strength_Index
0 0 -0 -1 -1 -1 -1 -1 -1 -2 -2 -2 -2 -1 -1 -1 -2 -1 -0 0 1 2 3 4 4 2 6
0 2 1 0 -0 -0 -0 0 -0 -0 -1 -1 -1 -2 -2 -1 -1 -1 0 1 2 3 5 6 5 4 8
0 1 2 1 1 1 2 2 2 1 0 0 0 -2 -2 -1 -1 -0 1 1 3 5 6 7 5 9 9
0 1 0 0 1 1 2 2 2 2 2 0 1 -1 -1 -1 -1 0 1 2 4 8 9 7 9 9 9
1 1 0 0 0 1 1 1 1 2 2 2 3 2 2 2 3 3 4 6 8 9 10 10 10 10 10
1 2 2 1 1 0 0 1 1 1 3 4 3 3 3 4 5 5 7 8 9 9 9 10 10 11 11
1 2 2 2 1 0 -0 1 2 2 3 4 3 3 3 4 5 6 9 9 9 10 10 10 10 10 10
2 2 2 2 2 1 0 2 2 2 4 4 4 3 3 4 6 8 9 9 10 10 10 10 11 11 11
2 2 2 2 2 2 2 2 2 3 4 4 4 4 4 5 7 9 9 9 10 10 11 11 11 11 10
2 2 2 2 2 2 2 2 2 2 3 5 5 5 5 6 8 10 10 11 11 11 12 12 12 11 11
3 2 2 2 2 2 2 2 3 2 3 4 5 5 6 8 9 10 11 11 12 12 11 12 12 12 12
5 4 4 3 2 2 2 2 2 2 3 5 6 6 7 9 10 10 11 11 11 11 11 12 12 12 12
7 6 6 5 4 3 3 2 2 3 4 5 7 7 8 9 10 10 11 11 12 12 13 13 13 13 13
8 7 6 6 6 4 4 4 3 3 4 6 7 8 9 10 11 11 11 12 12 12 13 14 16 15 14
9 8 8 7 8 8 7 6 5 4 5 5 7 8 9 10 10 11 11 11 13 13 12 13 15 16 16
9 9 9 9 10 10 9 8 7 6 6 6 7 8 9 10 11 11 11 11 12 13 13 12 13 13 16

GFSFLT2_con_lsi_030.txt.gz
Lid_Strength_Index
1 0 -0 -1 -1 -1 -1 -1 -1 -1 -1 -1 -2 -2 -1 -1 -1 -1 -0 0 1 3 3 2 1 2 4
0 2 1 0 -0 -1 -0 0 1 0 -0 -0 -1 -2 -2 -1 -2 -1 -0 0 2 3 4 4 3 4 6
1 1 2 1 1 1 1 2 2 1 1 2 1 -1 -2 -2 -2 -1 -0 1 2 5 5 4 6 10 7
0 1 -0 -0 -0 -0 1 1 1 2 3 3 3 0 -1 -2 -2 -1 -0 1 5 10 11 7 11 11 9
0 1 1 0 0 1 1 1 1 3 3 4 4 3 3 1 2 1 2 6 9 10 11 11 11 11 10
0 1 0 0 0 1 2 3 2 2 3 3 4 5 5 3 4 5 6 7 9 10 11 11 11 12 11
2 2 1 0 0 0 1 3 2 1 3 4 3 4 6 5 5 6 7 8 10 11 11 11 11 12 11
1 3 1 1 0 1 1 2 2 1 3 4 5 5 6 6 6 6 7 10 11 11 11 11 12 12 11
2 3 3 2 3 2 3 3 3 2 1 4 5 6 5 6 6 7 8 10 11 11 12 11 12 12 12
3 3 3 4 4 3 3 3 3 3 2 3 5 5 5 6 8 9 9 11 12 12 13 13 12 12 12
3 4 4 4 4 4 4 2 2 2 3 3 5 5 6 6 9 9 11 11 12 12 13 13 13 13 12
6 5 5 4 5 4 3 2 2 3 4 5 6 6 6 7 10 11 11 12 12 12 12 13 14 13 13
10 8 7 7 7 4 3 2 2 2 4 4 5 6 7 7 8 9 12 12 13 13 14 14 14 13 13
11 11 9 9 10 9 7 6 5 3 3 4 5 6 6 8 9 10 11 13 13 13 14 15 16 15 14
12 11 11 11 11 11 11 10 8 7 6 5 6 7 8 8 9 10 11 11 12 14 14 14 17 17 16
12 12 13 13 14 13 13 12 11 10 10 9 8 7 8 9 9 10 10 11 12 12 14 13 14 15 16

GFSFLT2_con_lsi_033.txt.gz
Lid_Strength_Index
0 -0 -1 -1 -1 -1 -1 -1 -1 -1 -1 -2 -2 -2 -1 -1 -1 -1 -1 0 2 3 3 1 1 1 4
0 1 1 0 -0 -0 -0 1 1 0 -0 -0 -0 -2 -2 -1 -1 -1 -1 0 2 3 4 3 2 3 6
-0 1 2 1 1 1 1 2 3 2 2 2 1 -0 -2 -2 -1 -1 -0 0 2 4 5 4 6 8 8
0 1 1 -0 -0 -0 -0 1 1 1 1 3 3 1 -0 -1 -2 -1 -1 0 5 11 11 8 11 10 9
1 1 1 1 0 0 0 0 1 2 3 3 3 3 3 3 2 1 2 6 10 12 11 11 12 12 10
2 1 1 1 1 0 1 1 1 2 3 3 4 4 4 5 5 4 5 6 9 10 11 11 12 12 11
3 3 1 0 1 1 1 2 3 3 2 3 3 3 4 5 6 6 6 7 9 11 11 12 12 12 12
1 3 1 0 0 1 1 1 3 4 4 2 3 4 4 5 6 7 7 7 10 11 11 11 12 12 12
2 3 3 1 1 2 1 2 3 3 3 2 4 5 4 5 6 7 8 9 10 11 12 12 12 12 12
3 3 3 3 3 3 3 2 3 3 2 3 4 4 4 6 6 7 8 11 11 12 13 13 13 12 12
4 4 4 4 4 3 2 2 2 2 2 3 4 4 5 5 6 7 10 10 12 12 12 13 13 13 12
8 6 6 8 7 5 5 3 2 2 3 3 4 5 5 6 8 9 9 11 12 12 12 12 14 13 13
10 10 9 10 10 9 8 7 6 4 3 3 4 4 5 6 6 8 10 11 12 12 13 14 14 13 14
11 11 10 11 11 11 10 10 9 8 7 6 6 7 7 7 8 9 10 11 11 12 13 15 15 14 14
12 11 11 11 12 12 13 12 12 11 11 10 9 7 8 8 8 9 10 11 11 12 13 12 15 17 17
12 12 13 14 14 14 13 13 13 13 14 13 12 11 10 9 9 10 10 11 11 11 12 12 13 14 15

GFSFLT2_con_lsi_036.txt.gz
Lid_Strength_Index
1 0 -0 -1 -1 -1 -1 -1 -1 -1 -1 -1 -2 -2 -1 -1 -1 -1 -0 -0 1 2 2 1 1 1 4
1 2 1 0 -0 -0 -0 1 1 1 -0 -1 -0 -1 -2 -1 -1 -1 -0 0 1 3 3 2 1 3 6
-0 1 2 2 1 1 1 2 3 1 2 2 2 0 -1 -2 -1 -1 -1 0 2 4 3 4 6 8 8
1 0 0 1 0 -0 -0 1 1 1 1 1 3 1 -0 -0 -1 -1 -1 1 6 11 12 8 11 10 9
1 0 0 0 0 0 0 0 0 1 2 2 2 1 2 3 4 3 3 5 9 12 12 12 12 12 11
1 1 0 1 2 2 1 0 1 2 2 3 3 3 2 3 4 5 6 6 8 10 10 12 12 12 12
-0 1 1 1 1 1 1 0 1 2 2 2 3 3 3 4 3 5 5 7 7 10 11 11 12 12 12
1 2 2 2 1 0 0 1 2 2 3 3 2 3 3 4 4 6 7 7 8 10 11 11 12 12 12
2 2 1 1 1 1 1 1 1 2 2 3 3 3 3 4 5 6 7 8 9 11 12 12 12 12 12
3 3 3 3 3 3 2 1 1 1 1 3 3 4 4 5 6 6 7 8 9 10 12 12 13 13 12
6 6 6 6 6 6 6 5 4 3 2 2 3 3 3 4 6 6 7 8 9 9 11 12 13 13 13
8 8 9 10 9 9 9 8 7 6 5 4 4 4 4 5 6 7 7 10 11 11 11 11 12 13 13
11 10 10 12 11 11 11 11 11 10 8 7 6 6 6 7 7 8 9 9 10 12 12 12 12 12 13
12 12 12 12 12 12 11 12 12 12 11 10 9 8 8 8 8 9 9 10 11 12 12 14 14 14 15
12 12 12 12 13 13 14 14 14 14 13 13 13 12 11 10 10 10 10 10 11 11 12 12 14 15 15
14 14 15 15 16 15 15 15 15 15 15 14 14 14 14 13 13 12 10 11 11 12 12 12 13 14 15

GFSFLT2_con_lsi_042.txt.gz
Lid_Strength_Index
0 -0 -1 -1 -1 -1 -1 -1 -1 -1 -1 -1 -2 -1 -1 -2 -2 -2 -1 -1 1 1 0 -0 1 1 0
-1 2 1 0 -1 -1 -1 -0 1 0 -1 -1 -0 -1 -1 -1 -1 -1 -1 -1 1 2 2 3 3 2 1
-1 -0 2 1 1 0 0 1 1 -1 -1 -1 1 -0 -1 -1 -1 -0 0 1 3 5 5 5 4 4 3
-1 -1 -1 -1 -1 -2 -1 -1 -1 -1 -1 -1 1 1 -0 -0 -1 -1 0 2 2 4 5 4 5 5 5
-1 -1 -1 -1 -1 -2 -1 -1 -1 -1 -1 -0 0 -0 -1 1 -0 -0 0 -1 1 2 4 5 5 5 5
-0 -1 -1 -1 -1 -1 -1 -1 -1 -1 -1 -0 1 -0 0 1 1 1 1 -0 1 2 3 4 5 5 5
2 -1 -1 -1 -1 -1 -1 -1 -1 -1 -1 -1 -0 0 0 1 1 -1 1 2 0 1 3 4 5 5 5
-0 -0 -0 0 0 1 1 0 0 0 0 1 0 1 1 1 1 1 2 3 3 4 3 4 4 4 5
2 3 4 4 3 4 3 3 2 1 1 1 2 2 2 2 2 3 5 4 4 4 4 6 6 4 4
5 6 7 7 6 6 6 4 4 3 3 3 3 3 3 4 4 5 6 5 5 6 6 6 6 4 5
7 8 9 8 7 6 5 6 5 4 4 4 4 5 5 5 5 5 6 5 5 5 7 6 6 7 6
7 8 7 7 8 7 7 7 6 6 4 4 4 5 4 4 5 5 5 6 7 8 8 8 7 7 8
5 6 7 8 9 10 10 9 8 8 7 6 6 5 5 5 6 5 5 6 6 7 6 5 5 6 7
7 7 8 10 11 11 11 11 11 10 10 9 8 8 8 7 7 7 6 6 6 6 8 6 7 6 7
8 9 10 10 11 11 12 12 12 12 11 11 11 11 10 9 9 9 8 7 7 6 7 8 8 9 9
9 9 10 11 13 13 13 12 12 12 12 11 11 11 11 11 11 11 10 10 8 9 7 7 6 8 10

GFSFLT2_con_lsi_045.txt.gz
Lid_Strength_Index
1 -0 -1 -1 -1 -1 -1 -1 -1 -2 -2 -1 -2 -2 -2 -2 -1 -1 -2 -0 1 1 1 2 1 0 1
-1 1 1 -0 -1 -1 -1 -1 0 -0 -1 -1 -1 -2 -1 -1 -1 -0 0 -0 2 3 3 4 2 1 3
-1 0 2 2 1 0 0 1 1 -1 -1 -0 0 -1 -2 -2 -1 -1 -0 1 4 4 4 4 3 4 4
-0 -1 -1 -1 -1 -1 -1 -1 -1 -1 -1 -1 1 0 -0 -1 -1 -1 0 1 1 2 4 3 5 5 4
-1 -1 -1 -1 -2 -1 -1 -1 -1 -1 -1 -1 -1 -0 -1 1 -1 -1 -1 -1 0 1 2 3 4 4 4
0 -1 -1 -1 -1 -1 -1 -1 -1 -1 -1 -1 -0 -1 -1 -0 -1 -0 -1 -1 -0 1 2 3 3 4 4
2 -1 -1 -1 -1 -1 -1 -1 -1 -1 -1 -1 -0 -0 -1 -0 0 -1 -1 1 1 1 1 3 3 3 3
-0 1 1 1 1 1 1 0 -1 -0 0 0 1 2 2 2 2 2 2 2 3 3 2 3 3 3 3
4 5 4 4 4 4 3 2 1 0 -0 1 1 1 1 2 3 3 3 4 3 3 2 3 3 3 4
7 7 7 6 5 5 5 3 3 2 2 3 3 4 4 4 4 5 5 5 5 4 4 3 4 5 3
8 8 8 8 8 6 5 4 3 2 2 3 3 3 3 4 4 4 4 4 4 4 5 5 5 5 5
7 8 8 9 8 7 6 6 6 5 4 4 4 3 4 4 4 4 4 4 5 5 5 5 4 4 5
6 6 7 8 8 9 9 8 8 7 7 6 6 6 5 6 6 6 5 5 5 6 5 5 3 4 5
5 6 7 9 9 10 10 10 10 9 9 9 9 9 8 8 8 8 7 6 6 6 8 6 6 5 5
7 8 9 9 10 10 11 11 11 10 10 10 10 10 10 10 11 10 9 9 9 7 7 7 8 9 8
7 8 8 10 12 12 12 11 11 11 11 11 11 11 11 10 10 10 10 10 10 11 9 9 7 8 10

GFSFLT2_con_lsi_048.txt.gz
Lid_Strength_Index
1 -0 -1 -1 -1 -2 -2 -2 -1 -1 -2 -2 -2 -2 -2 -2 -2 -1 -0 0 1 1 2 2 1 0 4
-0 1 1 -0 -1 -1 -1 -0 0 -0 -1 -1 -1 -2 -2 -2 -2 -1 -1 1 3 3 3 2 2 2 6
-0 1 2 1 1 0 0 1 2 -0 0 1 0 -1 -2 -2 -2 -1 -0 1 3 2 3 3 3 7 7
1 0 -0 -0 -0 -0 -0 0 -0 -0 -0 0 1 -0 -1 -1 -2 -1 -0 0 1 5 6 4 7 7 7
1 -0 0 0 0 0 -0 0 0 0 1 1 1 1 1 1 0 0 0 1 3 4 5 6 6 7 8
5 -0 -0 -0 0 1 0 0 0 0 0 1 1 0 0 0 1 0 1 1 2 3 4 5 6 7 8
5 -0 0 1 1 2 1 1 0 1 0 0 0 1 1 1 1 1 2 2 4 3 4 5 5 6 6
2 2 2 3 3 3 3 3 1 1 1 2 2 2 2 2 2 3 3 3 3 4 4 4 5 5 5
4 5 5 4 4 4 3 3 3 2 3 3 3 4 3 3 3 4 4 4 4 4 4 4 5 5 5
6 6 6 6 6 5 4 4 3 3 3 4 4 4 4 4 4 4 4 4 4 5 5 5 6 6 6
7 7 7 7 7 6 6 6 5 4 4 4 5 5 5 5 5 5 6 6 7 7 7 7 6 6 7
8 8 9 8 9 9 9 8 7 7 6 7 6 7 7 7 8 8 6 6 8 9 7 7 6 6 7
8 8 9 11 11 11 11 10 10 10 9 9 9 8 9 10 10 9 8 8 9 9 9 9 7 8 8
7 8 11 12 12 12 12 12 12 11 11 11 12 12 12 12 12 12 12 10 11 11 11 10 10 8 9
10 11 11 12 13 13 14 13 13 12 12 12 13 12 12 13 13 13 13 13 14 13 13 11 13 13 12
10 11 12 13 15 15 14 14 13 13 13 13 13 13 13 13 14 14 13 14 14 15 13 12 13 14 13